Tracking 18784 objects as of 18-August-2017
HD Live streaming from Space Station
objects crossing your sky now

AAU CUBESAT

Track AAU CUBESAT now!
10-day predictions
AAU CUBESAT is classified as:


NORAD ID: 27846
Int'l Code: 2003-031G
Perigee: 818.1 km
Apogee: 832.5 km
Inclination: 98.7 °
Period: 101.3 minutes
Semi major axis: 7196 km
RCS: 0.009 m2 (small)
Launch date: June 30, 2003
Source: Denmark (DEN)
Launch site: PLESETSK MISSILE AND SPACE COMPLEX (PKMTR)
Uplink (MHz):
Downlink (MHz): 437.450
Beacon (MHz): 437.450
Mode: 9600bps GMSK
Call sign:
Status: Inactive

Your satellite tracking list
Your tracking list is empty





NASA's NSSDC Master Catalog

Two Line Element Set (TLE):
1 27846U 03031G   17230.44318307  .00000042  00000-0  38441-4 0  9997
2 27846  98.6833 237.3027 0010025 135.8999 224.2980 14.22118856733314
Source of the keplerian elements: AFSPC